Weather History for Mason City, IA

Change the Weather History Date:

Wednesday, November 26, 2014

  Actual Average Record
Temperature  
Mean Temperature 21 °F 28 °F  
Max Temperature 29 °F 36 °F 65 °F (1998)
Min Temperature 13 °F 19 °F -16 °F (1977)
Degree Days  
Heating Degree Days 44 38  
Month to date heating degree days 983 786  
Since 1 July heating degree days 1708 1524  
Cooling Degree Days 0 0  
Month to date cooling degree days 0 0  
Year to date cooling degree days 544 616  
Moisture  
Dew Point 21 °F    
Average Humidity 85    
Maximum Humidity 92    
Minimum Humidity 78    
Precipitation  
Precipitation 0.03 in 0.06 in 1.72 in (1896)
Month to date precipitation 0.55 1.67  
Year to date precipitation 33.96 33.75  
Snow  
Snow 2.50 in 0.20 in 4.00 in (1952)
Month to date snowfall 8.0 3.3  
Since 1 July snowfall 8.0 3.7  
Since 1 September snowfall 8.0 3.7  
Snow Depth 1.00 in    
Sea Level Pressure  
Sea Level Pressure 30.12 in    
Wind  
Wind Speed 14 mph (NE)    
Max Wind Speed 23 mph    
Max Gust Speed 26 mph    
Visibility 4 miles    
Events Fog , Snow    
T = Trace of Precipitation, MM = Missing Value Source: NWS Daily Summary

Daily Weather History Graph

Daily Weather History Graph

Search for Another Location

Airport:

Trip Planner

Search our weather history database for the weather conditions in past years. The results will help you decide how hot, cold, wet, or windy it might be!

Date:

Astronomy

Nov. 26, 2014 Rise Set
Actual Time 7:19 AM CST 4:41 PM CST
Civil Twilight 6:48 AM CST 5:12 PM CST
Nautical Twilight 6:13 AM CST 5:47 PM CST
Astronomical Twilight 5:38 AM CST 6:22 PM CST
Moon 10:50 AM CST (11/26) 9:16 PM CST (11/26)
Length of Visible Light 10h 24m
Length of Day
9h 21m
Waxing Crescent, 21% of the Moon is Illuminated
Nov 26
Waxing Crescent
Nov 29
First Quarter
Dec 6
Full
Dec 14
Last Quarter
Dec 21
New

Hourly Weather History & Observations

Time (CST) Temp. Windchill Dew Point Humidity Pressure Visibility Wind Dir Wind Speed Gust Speed Precip Events Conditions
12:53 AM 23.0 °F 11.1 °F 18.0 °F 81% 30.02 in 10.0 mi SE 12.7 mph - N/A   Overcast
1:31 AM 24.8 °F 14.6 °F 19.4 °F 80% 29.98 in 9.0 mi SE 10.4 mph - N/A   Overcast
1:51 AM 24.8 °F 14.6 °F 19.4 °F 80% 29.98 in 10.0 mi ESE 10.4 mph - 0.00 in   Overcast
1:53 AM 24.1 °F 13.7 °F 19.0 °F 81% 30.02 in 10.0 mi SE 10.4 mph - 0.00 in   Overcast
2:53 AM 25.0 °F 13.1 °F 19.9 °F 81% 30.01 in 10.0 mi SE 13.8 mph - N/A   Overcast
3:36 AM 24.1 °F 12.5 °F 19.9 °F 84% 29.97 in 2.0 mi SE 12.7 mph - 0.00 in Snow Light Snow
3:53 AM 24.1 °F 13.1 °F 21.0 °F 88% 30.00 in 8.0 mi SE 11.5 mph - 0.00 in   Overcast
4:53 AM 24.1 °F 12.0 °F 19.9 °F 84% 29.99 in 5.0 mi SE 13.8 mph - 0.00 in Snow Light Snow
5:09 AM 24.1 °F 11.0 °F 19.9 °F 84% 29.95 in 2.5 mi SE 16.1 mph - 0.00 in Snow Light Snow
5:18 AM 24.1 °F 11.5 °F 19.9 °F 84% 29.95 in 1.5 mi SE 15.0 mph - 0.00 in Snow Light Snow
5:29 AM 24.1 °F 12.0 °F 19.9 °F 84% 29.95 in 3.0 mi SE 13.8 mph - 0.00 in Snow Light Snow
5:38 AM 24.1 °F 12.0 °F 19.9 °F 84% 29.96 in 2.5 mi ESE 13.8 mph - 0.00 in Snow Light Snow
5:48 AM 24.8 °F 13.4 °F 19.4 °F 80% 29.95 in 3.0 mi ESE 12.7 mph - 0.00 in Snow Light Snow
5:53 AM 24.1 °F 11.5 °F 19.9 °F 84% 29.99 in 2.5 mi ESE 15.0 mph - 0.00 in Snow Light Snow
6:09 AM 24.1 °F 12.5 °F 21.0 °F 88% 29.96 in 3.0 mi ESE 12.7 mph - 0.00 in Snow Light Snow
6:23 AM 24.1 °F 12.0 °F 21.0 °F 88% 29.96 in 2.5 mi ESE 13.8 mph - 0.00 in Snow Light Snow
6:30 AM 24.1 °F 13.1 °F 21.0 °F 88% 29.96 in 4.0 mi ESE 11.5 mph - 0.00 in Snow Light Snow
6:39 AM 24.1 °F 13.1 °F 21.0 °F 88% 29.96 in 4.0 mi East 11.5 mph - 0.00 in Snow Light Snow
6:53 AM 24.1 °F 13.1 °F 21.0 °F 88% 30.01 in 2.5 mi ESE 11.5 mph - 0.00 in Snow Light Snow
7:04 AM 24.1 °F 13.1 °F 21.0 °F 88% 29.97 in 1.8 mi ESE 11.5 mph - 0.00 in Snow Light Snow
7:29 AM 25.0 °F 13.6 °F 21.0 °F 85% 29.98 in 2.0 mi ESE 12.7 mph - 0.00 in Snow Light Snow
7:53 AM 25.0 °F 13.6 °F 21.0 °F 85% 30.03 in 2.5 mi ESE 12.7 mph - 0.00 in Snow Light Snow
8:02 AM 25.0 °F 15.5 °F 21.0 °F 85% 29.99 in 3.0 mi ESE 9.2 mph - 0.00 in Snow Light Snow
8:53 AM 26.1 °F 16.2 °F 21.0 °F 81% 30.05 in 3.0 mi East 10.4 mph - 0.00 in Snow Light Snow
9:00 AM 26.1 °F 14.5 °F 21.0 °F 81% 30.01 in 1.8 mi ESE 13.8 mph - 0.00 in Snow Light Snow
9:53 AM 26.1 °F 16.8 °F 21.9 °F 84% 30.08 in 1.8 mi East 9.2 mph - 0.00 in Snow Light Snow
10:13 AM 27.0 °F 18.0 °F 21.9 °F 81% 30.04 in 3.0 mi East 9.2 mph - 0.00 in Snow Light Snow
10:33 AM 28.0 °F 18.6 °F 21.0 °F 75% 30.05 in 10.0 mi East 10.4 mph - 0.00 in   Overcast
10:53 AM 28.0 °F 19.3 °F 21.0 °F 75% 30.09 in 10.0 mi East 9.2 mph - 0.00 in   Overcast
11:53 AM 28.9 °F 21.1 °F 23.0 °F 78% 30.11 in 10.0 mi NE 8.1 mph - N/A   Overcast
12:25 PM 28.9 °F 19.8 °F 23.0 °F 78% 30.08 in 4.0 mi NNE 10.4 mph - 0.00 in Snow Light Snow
12:36 PM 28.0 °F 17.5 °F 24.1 °F 85% 30.09 in 1.8 mi NNE 12.7 mph - 0.00 in Snow Light Snow
12:53 PM 28.0 °F 17.5 °F 24.1 °F 85% 30.13 in 2.0 mi NNE 12.7 mph - 0.00 in Snow Light Snow
1:01 PM 28.0 °F 17.0 °F 24.1 °F 85% 30.09 in 1.5 mi NNE 13.8 mph - 0.00 in Snow Light Snow
1:10 PM 27.0 °F 14.7 °F 24.1 °F 89% 30.10 in 0.8 mi NNE 16.1 mph - 0.00 in Snow Light Snow
1:29 PM 27.0 °F 14.7 °F 24.1 °F 89% 30.11 in 0.8 mi NNE 16.1 mph - 0.00 in Snow Light Snow
1:39 PM 27.0 °F 14.7 °F 24.1 °F 89% 30.11 in 0.8 mi North 16.1 mph - 0.00 in Snow Light Snow
1:50 PM 26.6 °F 12.7 °F 23.0 °F 86% 30.12 in 0.8 mi NNE 20.7 mph - 0.00 in Snow Light Snow
1:53 PM 26.1 °F 13.1 °F 23.0 °F 88% 30.16 in 0.8 mi NNE 17.3 mph - 0.00 in Snow Light Snow
2:09 PM 26.1 °F 13.6 °F 23.0 °F 88% 30.13 in 0.5 mi North 16.1 mph - 0.00 in Fog , Snow Snow
2:53 PM 25.0 °F 12.6 °F 21.9 °F 88% 30.19 in 0.8 mi NNE 15.0 mph - 0.00 in Snow Light Snow
3:02 PM 25.0 °F 13.6 °F 21.9 °F 88% 30.16 in 0.5 mi NNE 12.7 mph - 0.00 in Fog , Snow Snow
3:43 PM 25.0 °F 13.1 °F 21.9 °F 88% 30.18 in 0.2 mi NNE 13.8 mph - 0.01 in Fog , Snow Heavy Snow
3:53 PM 25.0 °F 15.5 °F 23.0 °F 92% 30.22 in 0.5 mi NNE 9.2 mph - 0.01 in Fog , Snow Snow
4:12 PM 25.0 °F 14.8 °F 23.0 °F 92% 30.19 in 0.8 mi NNE 10.4 mph - 0.01 in Snow Light Snow
4:53 PM 25.0 °F 14.8 °F 21.9 °F 88% 30.25 in 1.0 mi North 10.4 mph - 0.02 in Snow Light Snow
5:06 PM 24.8 °F 15.3 °F 21.2 °F 86% 30.22 in 2.5 mi North 9.2 mph - N/A Snow Light Snow
5:17 PM 25.0 °F 15.5 °F 21.9 °F 88% 30.23 in 3.0 mi North 9.2 mph - 0.00 in Snow Light Snow
5:35 PM 24.1 °F 13.1 °F 21.9 °F 91% 30.23 in 2.5 mi North 11.5 mph - 0.00 in Snow Light Snow
5:46 PM 24.1 °F 12.5 °F 21.9 °F 91% 30.24 in 3.0 mi North 12.7 mph - 0.00 in Snow Light Snow
5:53 PM 24.1 °F 13.1 °F 21.9 °F 91% 30.29 in 3.0 mi North 11.5 mph - 0.00 in Snow Light Snow
6:19 PM 24.1 °F 12.5 °F 21.9 °F 91% 30.25 in 4.0 mi North 12.7 mph - 0.00 in Snow Light Snow
6:53 PM 24.1 °F 11.0 °F 21.0 °F 88% 30.30 in 10.0 mi North 16.1 mph - 0.00 in   Overcast
7:03 PM 24.1 °F 11.5 °F 21.0 °F 88% 30.26 in 10.0 mi North 15.0 mph - N/A   Overcast
7:17 PM 24.1 °F 11.0 °F 21.0 °F 88% 30.27 in 9.0 mi North 16.1 mph - N/A   Overcast
7:28 PM 24.1 °F 11.0 °F 21.0 °F 88% 30.27 in 7.0 mi NNW 16.1 mph - N/A   Overcast
7:53 PM 24.1 °F 10.6 °F 21.9 °F 91% 30.32 in 6.0 mi NNW 17.3 mph - N/A   Overcast
8:21 PM 23.0 °F 8.7 °F 19.0 °F 85% 30.29 in 10.0 mi NNW 18.4 mph - N/A   Overcast
8:53 PM 19.9 °F 4.8 °F 17.1 °F 89% 30.35 in 10.0 mi NW 18.4 mph - N/A   Overcast
9:34 PM 17.1 °F 0.6 °F 14.0 °F 88% 30.32 in 10.0 mi NNW 19.6 mph - N/A   Overcast
9:53 PM 17.1 °F 0.6 °F 12.9 °F 84% 30.37 in 10.0 mi NW 19.6 mph - N/A   Overcast
10:53 PM 15.1 °F -0.6 °F 10.9 °F 84% 30.39 in 10.0 mi NW 16.1 mph - N/A   Overcast
11:53 PM 12.9 °F -4.9 °F 9.0 °F 84% 30.42 in 10.0 mi NW 19.6 mph - N/A   Overcast